Header for Extended Forecast Station List Page

Search by: ID | Name | Date | Parm | Value | Avg | % Avg
Sort by: ID | Name | Date | Parm | Value | Avg | % Avg

Enter search or view all records.

Click on id for station plot
#IDNameDateParmValueAvg% Avg
0LYDM8KOOTENAI-LIBBY DAM07-18-2016INFLOW (KAF)1325191569
1LEOI1KOOTENAI-AT LEONIA07-18-2016DISCHARGE (KAF)1736237973
2BFEI1KOOTENAI-AT BONNERS FERRY07-18-2016STAGE (FT)MMM
3FCFM8NF FLATHEAD-NEAR COLUMBIA FALLS07-18-2016DISCHARGE (KAF)29134585
4WGCM8MF FLATHEAD-NEAR WEST GLACIER07-18-2016DISCHARGE (KAF)21929076
5HHWM8SF FLATHEAD-HUNGRY HORSE DAM07-18-2016INFLOW (KAF)21927280
6CFMM8FLATHEAD-AT COLUMBIA FALLS07-18-2016DISCHARGE (KAF)1070127884
7DLGM8CLARK FORK-AT DEER LODGE07-18-2016DISCHARGE (KAF)294566
8DRMM8CLARK FORK-NR DRUMMOND07-18-2016DISCHARGE (KAF)81MM
9RCCM8ROCK CREEK-NEAR CLINTON07-18-2016DISCHARGE (KAF)497169
10BONM8BLACKFOOT-NEAR BONNER07-18-2016DISCHARGE (KAF)11418961
11ABOM8CLARK FORK-ABOVE MISSOULA07-18-2016DISCHARGE (KAF)25540563
12BITM8BITTERROOT-NEAR MISSOULA07-18-2016DISCHARGE (KAF)20124183
13BELM8CLARK FORK-BELOW MISSOULA07-18-2016DISCHARGE (KAF)45465469
14STRM8ST. REGIS-NEAR ST. REGIS07-18-2016DISCHARGE (KAF)263283
15SRGM8CLARK FORK-AT ST REGIS07-18-2016DISCHARGE (KAF)59285869
16KERM8FLATHEAD-KERR DAM07-18-2016INFLOW (KAF)1174152077
17NOXM8CLARK FORK-NOXON RAPIDS DAM07-18-2016INFLOW (KAF)2277303975
18CABI1CLARK FORK-CABINET GORGE DAM07-18-2016INFLOW (KAF)2512324078
19PRTI1PRIEST-NEAR PRIEST RIVER07-18-2016DISCHARGE (KAF)10716565
20ALFW1PEND OREILLE-ALBENI FALLS DAM07-18-2016INFLOW (KAF)2610350674
21HOPI1PEND OREILLE-PEND OREILLE LAKE NR HOPE07-18-2016LAKE ELEVATION (FT)MMM
22COEI1COEUR D ALENE-COEUR D ALENE LAKE07-18-2016INFLOW (KAF)20022987
23SPOW1SPOKANE-AT SPOKANE07-18-2016DISCHARGE (KAF)382MM
24LLKW1SPOKANE-AT LONGLAKE07-18-2016INFLOW (KAF)53360888
25SATI1ST MARIES-NEAR SANTA07-18-2016DISCHARGE (KAF)141878
26SJMI1ST JOE-AT ST MARIES07-18-2016STAGE (FT)MMM
27CIBW1COLUMBIA-AT INTL BOUNDARY07-18-2016DISCHARGE (KAF)19362MM
28LAUW1KETTLE-AT LAURIER07-18-2016DISCHARGE (KAF)14417283
29GCDW1COLUMBIA-GRAND COULEE DAM07-18-2016INFLOW (KAF)200712212491
30CHJW1COLUMBIA-CHIEF JOSEPH DAM07-18-2016INFLOW (KAF)191822109291
31TONW1OKANOGAN-NEAR TONASKET07-18-2016DISCHARGE (KAF)29932991
32PATW1METHOW-NEAR PATEROS07-18-2016DISCHARGE (KAF)11814581
33WELW1COLUMBIA-WELLS DAM07-18-2016INFLOW (KAF)196162141292
34CHDW1CHELAN-LAKE CHELAN DAM07-18-2016INFLOW (KAF)12526946
35RRHW1COLUMBIA-ROCKY REACH DAM07-18-2016INFLOW (KAF)199162195391
36ARDW1ENTIAT-NEAR ARDENVOIR07-18-2016DISCHARGE (KAF)303779
37PESW1WENATCHEE-AT PESHASTIN07-18-2016DISCHARGE (KAF)23031373
38WANW1COLUMBIA-WANAPUM DAM07-18-2016INFLOW (KAF)201762245790
39PRWW1COLUMBIA-PRIEST RAPIDS DAM07-18-2016INFLOW (KAF)201802290788
40KEDW1YAKIMA-KEECHELUS LAKE07-18-2016INFLOW (KAF)3327123
41KADW1KACHESS-KACHESS DAM07-18-2016INFLOW (KAF)1917115
42EASW1YAKIMA-AT EASTON07-18-2016DISCHARGE (KAF)9273126
43CLUW1CLE ELUM-CLE ELUM LAKE07-18-2016INFLOW (KAF)588072
44TNAW1TEANAWAY-BELOW FORKS07-18-2016DISCHARGE (KAF)8987
45UMTW1YAKIMA-AT UMTANUM07-18-2016DISCHARGE (KAF)574550104
46BUDW1BUMPING-BUMPING LAKE DAM07-18-2016INFLOW (KAF)192386
47CLFW1NACHES-NEAR CLIFFDEL07-18-2016DISCHARGE (KAF)678876
48RILW1TIETON-RIMROCK LAKE NEAR RIMROCK07-18-2016INFLOW (KAF)7669110
49NACW1NACHES-NEAR NACHES07-18-2016DISCHARGE (KAF)193128151
50PARW1YAKIMA-NEAR PARKER07-18-2016DISCHARGE (KAF)319157203
51KIOW1YAKIMA-AT KIONA07-18-2016DISCHARGE (KAF)613459134
52IPDI1HENRYS FORK-ISLAND PARK DAM07-18-2016INFLOW (KAF)10814774
53CHEI1FALL RIVER-NEAR CHESTER07-18-2016DISCHARGE (KAF)637782
54ANTI1HENRYS FORK-AT ST. ANTHONY07-18-2016DISCHARGE (KAF)25031978
55TEAI1TETON-NEAR ST. ANTHONY07-18-2016DISCHARGE (KAF)13517179
56REXI1HENRYS FORK-AT REXBURG07-18-2016DISCHARGE (KAF)28537476
57JLKW4SNAKE-JACKSON LAKE AT DAM07-18-2016INFLOW (KAF)11717666
58JKSW4SNAKE-NEAR JACKSON07-18-2016DISCHARGE (KAF)77782694
59ALPW4SNAKE-NEAR ALPINE07-18-2016DISCHARGE (KAF)84098785
60PLDI1SF SNAKE-PALISADES DAM07-18-2016INFLOW (KAF)1125135483
61HEII1SNAKE-NEAR HEISE07-18-2016DISCHARGE (KAF)18171695107
62RIDI1WILLOW CREEK-RIRIE DAM07-18-2016INFLOW (KAF)3561
63SIFI1SNAKE-AB EAGLE ROCK NR IDAHO FALLS07-18-2016DISCHARGE (KAF)13211215109
64SHYI1SNAKE-NEAR SHELLEY07-18-2016DISCHARGE (KAF)1224955128
65SNAI1SNAKE-AT BLACKFOOT07-18-2016DISCHARGE (KAF)823581142
66BFTI1SNAKE-NEAR BLACKFOOT07-18-2016DISCHARGE (KAF)825569145
67PIHI1PORTNEUF-AT POCATELLO07-18-2016DISCHARGE (KAF)212972
68AFRI1SNAKE-AMERICAN FALLS RESERVOIR07-18-2016INFLOW (KAF)13951224114
69MILI1SNAKE-AT MILNER07-18-2016DISCHARGE (KAF)12614090
70HOTI1BRUNEAU-NEAR HOT SPRINGS07-18-2016DISCHARGE (KAF)202386
71SWAI1SNAKE-BELOW SWAN FALLS07-18-2016DISCHARGE (KAF)1851207789
72HWRI1BIG LOST-AT HOWELL RANCH NEAR CHILLY07-18-2016DISCHARGE (KAF)314372
73MACI1BIG LOST-MACKAY RESERVOIR NEAR MACKAY07-18-2016INFLOW (KAF)4131131
74HALI1BIG WOOD-AT HAILEY07-18-2016DISCHARGE (KAF)486179
75MAGI1BIG WOOD-MAGIC DAM07-18-2016INFLOW (KAF)193064
76LWRI1LITTLE WOOD-LITTLE WOOD DAM07-18-2016INFLOW (KAF)111667
77OWYO3OWYHEE-OWYHEE DAM07-18-2016INFLOW (KAF)6151119
78ARAI1SF BOISE-ANDERSON RANCH DAM07-18-2016INFLOW (KAF)687788
79LUCI1BOISE-LUCKY PEAK DAM07-18-2016INFLOW (KAF)375MM
80BIGI1BOISE-AT GLENWOOD BRIDGE07-18-2016DISCHARGE (KAF)272154177
81PARI1BOISE-NEAR PARMA07-18-2016DISCHARGE (KAF)331221150
82WRMO3MALHEUR-WARM SPRINGS DAM07-18-2016INFLOW (KAF)44101
83BERO3MALHEUR-AGENCY VALLEY DAM07-18-2016INFLOW (KAF)7798
84BULO3BULLY CREEK-BULLY CREEK DAM07-18-2016INFLOW (KAF)006
85VALO3MALHEUR-NEAR VALE07-18-2016DISCHARGE (KAF)172763
86CSDI1NF PAYETTE-CASCADE DAM07-18-2016INFLOW (KAF)7666115
87DEDI1DEADWOOD-NEAR LOWMAN07-18-2016INFLOW (KAF)172277
88EMMI1PAYETTE-NEAR EMMETT07-18-2016DISCHARGE (KAF)40141297
89WSRI1WEISER-NEAR WEISER07-18-2016DISCHARGE (KAF)495295
90WEII1SNAKE-AT WEISER07-18-2016DISCHARGE (KAF)2946304297
91BRNI1SNAKE-BROWNLEE DAM07-18-2016INFLOW (KAF)30903095100
92WHBI1SALMON-AT WHITEBIRD07-18-2016DISCHARGE (KAF)1214131992
93TRYO3GRANDE RONDE-TROY07-18-2016DISCHARGE (KAF)18820990
94ANAW1SNAKE-NEAR ANATONE07-18-2016DISCHARGE (KAF)4541476595
95ORFI1CLEARWATER-AT OROFINO07-18-2016DISCHARGE (KAF)42654478
96DWRI1NF CLEARWATER-DWORSHAK DAM07-18-2016INFLOW (KAF)29338376
97SPDI1CLEARWATER-AT SPALDING07-18-2016DISCHARGE (KAF)17521073163
98LGDW1SNAKE-LOWER GRANITE DAM07-18-2016INFLOW (KAF)62935907107
99LGSW1SNAKE-LITTLE GOOSE DAM07-18-2016INFLOW (KAF)62515942105
100LMNW1SNAKE-LOWER MONUMENTAL DAM07-18-2016INFLOW (KAF)62245958104
101IHDW1SNAKE-ICE HARBOR DAM07-18-2016INFLOW (KAF)62135868106
102TCHW1WALLA WALLA-NEAR TOUCHET07-18-2016DISCHARGE (KAF)91092
103MCDW1COLUMBIA-MCNARY DAM07-18-2016INFLOW (KAF)271392970091
104GIBO3UMATILLA-NEAR GIBBON07-18-2016DISCHARGE (KAF)101282
105PDTO3UMATILLA-AT PENDLETON07-18-2016DISCHARGE (KAF)81363
106MYKO3MCKAY CREEK-NEAR PILOT ROCK07-18-2016DISCHARGE (KAF)0114
107UMAO3UMATILLA-NEAR UMATILLA07-18-2016DISCHARGE (KAF)3311295
108MONO3NF JOHN DAY-AT MONUMENT07-18-2016DISCHARGE (KAF)253767
109SERO3JOHN DAY-AT SERVICE CK07-18-2016DISCHARGE (KAF)326251
110JDAO3COLUMBIA-JOHN DAY DAM07-18-2016INFLOW (KAF)275263018691
111MODO3DESCHUTES-AT MOODY NR BIGGS07-18-2016DISCHARGE (KAF)1061110596
112TDAO3COLUMBIA-THE DALLES DAM07-18-2016INFLOW (KAF)280763028093
113PITW1KLICKITAT-NEAR PITT07-18-2016DISCHARGE (KAF)196195101
114HODO3HOOD-NEAR TUCKER BRIDGE07-18-2016DISCHARGE (KAF)959699
115UNDW1WHITE SALMON-NEAR UNDERWOOD07-18-2016DISCHARGE (KAF)185160116
116BONO3COLUMBIA-BONNEVILLE DAM07-18-2016INFLOW (KAF)28542MM